| time (UTC) | temp F | wind direction | speed MPH | gust MPH | rain 1hr in | rain 24hr in | rain mn in | humidity % | barometer mb |
| 20260508094548 | 40 | 138 | 1.0 | 4.0 | 0.00 | 0.00 | 0.00 | 79 | 1014.0 |
| 20260508093046 | 40 | 182 | 1.0 | 5.0 | 0.00 | 0.00 | 0.00 | 79 | 1014.1 |
| 20260508091604 | 40 | 0 | 0.0 | 7.0 | 0.00 | 0.00 | 0.00 | 78 | 1014.1 |
| 20260508090043 | 41 | 176 | 0.0 | 4.0 | 0.00 | 0.00 | 0.00 | 78 | 1013.9 |
| 20260508084547 | 41 | 148 | 0.0 | 5.0 | 0.00 | 0.00 | 0.00 | 77 | 1014.0 |
| 20260508083047 | 42 | 146 | 0.0 | 3.0 | 0.00 | 0.00 | 0.00 | 75 | 1013.9 |
| 20260508081609 | 42 | 0 | 0.0 | 4.0 | 0.00 | 0.00 | 0.00 | 74 | 1013.7 |
| 20260508074544 | 43 | 0 | 0.0 | 3.0 | 0.00 | 0.00 | 0.00 | 71 | 1013.7 |
| 20260508073051 | 44 | 186 | 0.0 | 3.0 | 0.00 | 0.00 | 0.00 | 70 | 1013.7 |
| 20260508071548 | 44 | 0 | 2.0 | 5.0 | 0.00 | 0.00 | 0.00 | 68 | 1013.7 |
| 20260508070050 | 46 | 140 | 0.0 | 1.0 | 0.00 | 0.00 | 0.00 | 66 | 1013.7 |
| 20260508064548 | 46 | 0 | 0.0 | 2.0 | 0.00 | 0.00 | 0.00 | 64 | 1013.5 |
| 20260508063048 | 47 | 0 | 0.0 | 1.0 | 0.00 | 0.00 | 0.00 | 62 | 1013.7 |
| 20260508061541 | 48 | 0 | 0.0 | 1.0 | 0.00 | 0.00 | 0.00 | 60 | 1013.7 |
| 20260508060106 | 49 | 0 | 0.0 | 1.0 | 0.00 | 0.00 | 0.00 | 58 | 1013.6 |
| 20260508054633 | 49 | 360 | 0.0 | 2.0 | 0.00 | 0.00 | 0.00 | 55 | 1013.5 |
| 20260508053052 | 50 | 0 | 0.0 | 1.0 | 0.00 | 0.00 | 0.00 | 53 | 1013.5 |
| 20260508051549 | 51 | 0 | 0.0 | 2.0 | 0.00 | 0.00 | 0.00 | 53 | 1013.5 |
| 20260508050050 | 52 | 360 | 0.0 | 2.0 | 0.00 | 0.00 | 0.00 | 50 | 1013.2 |
| 20260508044547 | 53 | 0 | 0.0 | 2.0 | 0.00 | 0.00 | 0.00 | 47 | 1012.9 |
| 20260508043056 | 54 | 360 | 2.0 | 6.0 | 0.00 | 0.00 | 0.00 | 47 | 1012.7 |
| 20260508041545 | 54 | 360 | 1.0 | 8.0 | 0.00 | 0.00 | 0.00 | 44 | 1012.5 |
| 20260508040045 | 55 | 360 | 1.0 | 8.0 | 0.00 | 0.00 | 0.00 | 44 | 1012.2 |
| 20260508034547 | 54 | 360 | 1.0 | 5.0 | 0.00 | 0.00 | 0.00 | 44 | 1012.2 |
| 20260508033047 | 56 | 168 | 0.0 | 4.0 | 0.00 | 0.00 | 0.00 | 43 | 1011.9 |
| 20260508031556 | 57 | 0 | 2.0 | 11.0 | 0.00 | 0.00 | 0.00 | 39 | 1011.9 |
| 20260508030047 | 56 | 155 | 3.0 | 8.0 | 0.00 | 0.00 | 0.00 | 40 | 1011.8 |
| 20260508024601 | 57 | 305 | 1.0 | 9.0 | 0.00 | 0.00 | 0.00 | 39 | 1011.7 |
| 20260508023050 | 57 | 261 | 2.0 | 8.0 | 0.00 | 0.00 | 0.00 | 41 | 1011.6 |
| 20260508021547 | 58 | 148 | 4.0 | 10.0 | 0.00 | 0.00 | 0.00 | 37 | 1011.5 |
| 20260508020058 | 58 | 139 | 3.0 | 10.0 | 0.00 | 0.00 | 0.00 | 38 | 1011.3 |
| 20260508014549 | 58 | 190 | 1.0 | 8.0 | 0.00 | 0.00 | 0.00 | 38 | 1011.2 |
| 20260508013042 | 58 | 0 | 1.0 | 7.0 | 0.00 | 0.00 | 0.00 | 39 | 1011.1 |
| 20260508011551 | 58 | 0 | 1.0 | 8.0 | 0.00 | 0.00 | 0.00 | 43 | 1010.6 |
| 20260508010052 | 57 | 163 | 2.0 | 6.0 | 0.00 | 0.00 | 0.00 | 41 | 1010.4 |
| 20260508004550 | 58 | 0 | 0.0 | 4.0 | 0.00 | 0.00 | 0.00 | 43 | 1010.2 |
| 20260508003049 | 59 | 292 | 0.0 | 3.0 | 0.00 | 0.00 | 0.00 | 42 | 1010.1 |
| 20260508001547 | 60 | 0 | 1.0 | 4.0 | 0.00 | 0.00 | 0.00 | 37 | 1009.9 |
| 20260508000049 | 61 | 0 | 0.0 | 5.0 | 0.00 | 0.00 | 0.00 | 39 | 1009.5 |
| 20260507234546 | 62 | 155 | 1.0 | 11.0 | 0.00 | 0.00 | 0.00 | 34 | 1009.4 |
| 20260507233046 | 63 | 171 | 5.0 | 12.0 | 0.00 | 0.00 | 0.00 | 33 | 1009.2 |
| 20260507231548 | 63 | 165 | 4.0 | 11.0 | 0.00 | 0.00 | 0.00 | 33 | 1009.0 |
| 20260507230047 | 64 | 221 | 3.0 | 16.0 | 0.00 | 0.00 | 0.00 | 32 | 1009.0 |
| 20260507224549 | 64 | 24 | 9.0 | 15.0 | 0.00 | 0.00 | 0.00 | 33 | 1008.8 |
| 20260507223048 | 64 | 18 | 6.0 | 12.0 | 0.00 | 0.00 | 0.00 | 32 | 1008.7 |
| 20260507221544 | 66 | 13 | 8.0 | 15.0 | 0.00 | 0.00 | 0.00 | 31 | 1008.3 |
| 20260507220052 | 68 | 155 | 7.0 | 14.0 | 0.00 | 0.00 | 0.00 | 29 | 1008.2 |
| 20260507214549 | 68 | 71 | 3.0 | 8.0 | 0.00 | 0.00 | 0.00 | 30 | 1008.0 |
| 20260507213052 | 68 | 187 | 5.0 | 12.0 | 0.00 | 0.00 | 0.00 | 28 | 1007.8 |
| 20260507211554 | 69 | 134 | 3.0 | 9.0 | 0.00 | 0.00 | 0.00 | 27 | 1007.6 |
| 20260507210049 | 69 | 82 | 5.0 | 11.0 | 0.00 | 0.00 | 0.00 | 27 | 1007.8 |
| 20260507204551 | 67 | 11 | 4.0 | 15.0 | 0.00 | 0.01 | 0.00 | 27 | 1007.6 |
| 20260507203047 | 68 | 13 | 3.0 | 16.0 | 0.00 | 0.01 | 0.00 | 27 | 1007.8 |
| 20260507201550 | 70 | 159 | 5.0 | 13.0 | 0.00 | 0.01 | 0.00 | 25 | 1008.1 |
| 20260507200050 | 68 | 11 | 4.0 | 14.0 | 0.00 | 0.01 | 0.00 | 27 | 1008.0 |
| 20260507194548 | 67 | 11 | 4.0 | 18.0 | 0.00 | 0.01 | 0.00 | 27 | 1008.2 |
| 20260507193046 | 68 | 11 | 6.0 | 16.0 | 0.00 | 0.01 | 0.00 | 26 | 1008.3 |
| 20260507191545 | 68 | 162 | 3.0 | 11.0 | 0.00 | 0.01 | 0.00 | 26 | 1008.3 |
| 20260507190051 | 67 | 10 | 4.0 | 11.0 | 0.00 | 0.01 | 0.00 | 27 | 1008.7 |
| 20260507184547 | 69 | 157 | 3.0 | 9.0 | 0.00 | 0.01 | 0.00 | 27 | 1008.8 |
| 20260507183050 | 67 | 12 | 5.0 | 11.0 | 0.00 | 0.01 | 0.00 | 28 | 1008.8 |
| 20260507181551 | 68 | 261 | 4.0 | 9.0 | 0.00 | 0.01 | 0.00 | 26 | 1009.0 |
| 20260507180053 | 67 | 9 | 1.0 | 7.0 | 0.00 | 0.01 | 0.00 | 31 | 1009.4 |
| 20260507174602 | 67 | 19 | 1.0 | 8.0 | 0.00 | 0.01 | 0.00 | 32 | 1009.6 |
| 20260507173050 | 66 | 10 | 1.0 | 5.0 | 0.00 | 0.01 | 0.00 | 33 | 1010.0 |
| 20260507171603 | 63 | 13 | 4.0 | 12.0 | 0.00 | 0.01 | 0.00 | 35 | 1010.2 |
| 20260507170054 | 62 | 11 | 6.0 | 13.0 | 0.00 | 0.01 | 0.00 | 36 | 1010.5 |
| 20260507164551 | 62 | 0 | 5.0 | 12.0 | 0.00 | 0.01 | 0.00 | 36 | 1010.7 |
| 20260507163051 | 62 | 21 | 2.0 | 8.0 | 0.00 | 0.01 | 0.00 | 36 | 1010.9 |
| 20260507161550 | 60 | 102 | 8.0 | 18.0 | 0.00 | 0.01 | 0.00 | 37 | 1011.2 |
| 20260507160053 | 62 | 17 | 3.0 | 11.0 | 0.00 | 0.01 | 0.00 | 37 | 1011.2 |
| 20260507154547 | 60 | 18 | 2.0 | 13.0 | 0.00 | 0.01 | 0.00 | 36 | 1011.5 |
| 20260507153102 | 60 | 35 | 1.0 | 11.0 | 0.00 | 0.01 | 0.00 | 39 | 1011.7 |
| 20260507151544 | 59 | 0 | 1.0 | 13.0 | 0.00 | 0.01 | 0.00 | 39 | 1011.9 |
| 20260507150048 | 58 | 12 | 4.0 | 15.0 | 0.00 | 0.01 | 0.00 | 41 | 1012.1 |
| 20260507144552 | 58 | 27 | 2.0 | 12.0 | 0.00 | 0.02 | 0.00 | 41 | 1012.6 |
| 20260507143051 | 57 | 30 | 3.0 | 12.0 | 0.00 | 0.02 | 0.00 | 43 | 1012.6 |
| 20260507141547 | 56 | 26 | 4.0 | 10.0 | 0.00 | 0.02 | 0.00 | 45 | 1013.0 |
| 20260507140055 | 55 | 0 | 1.0 | 6.0 | 0.00 | 0.02 | 0.00 | 50 | 1013.2 |
| 20260507134551 | 53 | 79 | 2.0 | 6.0 | 0.00 | 0.09 | 0.00 | 53 | 1013.4 |
| 20260507133053 | 53 | 143 | 0.0 | 7.0 | 0.00 | 0.09 | 0.00 | 56 | 1013.7 |
| 20260507131548 | 53 | 47 | 1.0 | 3.0 | 0.00 | 0.09 | 0.00 | 54 | 1013.7 |
| 20260507124607 | 52 | 0 | 0.0 | 4.0 | 0.00 | 0.17 | 0.00 | 56 | 1013.8 |
| 20260507123050 | 51 | 80 | 0.0 | 4.0 | 0.00 | 0.17 | 0.00 | 58 | 1013.8 |
| 20260507121540 | 51 | 38 | 1.0 | 5.0 | 0.00 | 0.17 | 0.00 | 57 | 1013.8 |
| 20260507120040 | 51 | 0 | 1.0 | 4.0 | 0.00 | 0.17 | 0.00 | 59 | 1013.6 |
| 20260507114607 | 50 | 68 | 0.0 | 3.0 | 0.00 | 0.20 | 0.00 | 62 | 1013.8 |
| 20260507113047 | 50 | 19 | 0.0 | 2.0 | 0.00 | 0.20 | 0.00 | 65 | 1013.7 |
| 20260507111545 | 50 | 0 | 0.0 | 2.0 | 0.00 | 0.20 | 0.00 | 63 | 1013.6 |
| 20260507110046 | 50 | 360 | 0.0 | 2.0 | 0.00 | 0.20 | 0.00 | 65 | 1013.3 |
| 20260507104549 | 50 | 360 | 1.0 | 4.0 | 0.00 | 0.20 | 0.00 | 59 | 1013.2 |
| 20260507103048 | 50 | 0 | 0.0 | 2.0 | 0.00 | 0.20 | 0.00 | 64 | 1012.9 |
| 20260507101548 | 50 | 360 | 0.0 | 1.0 | 0.00 | 0.20 | 0.00 | 66 | 1012.8 |
| 20260507100047 | 50 | 0 | 0.0 | 1.0 | 0.00 | 0.20 | 0.00 | 65 | 1012.8 |